STARLINK-1596, 46141

Orbit data source: Space-Track

STARLINK-1596, 46141 is a payload satellite owned by SpaceX/Seattle (US) in LEO that was launched on Tue, 18 Aug 2020 UTC via an FALCON 9 launch vehicle from the Air Force Eastern Test Range (AFETR). Payload-class satellites include a variety of spacecraft equipped with specific instruments for various scientific and technological missions. These include communications satellites like Starlink; space stations such as the ISS; scientific satellites like the Hubble; Earth observation satellites from companies like Planet Labs, Umbra, and HawkEye 360; GPS; miniature CubeSats for education and research; and military/defense satellites.

Loading next visibility...
Identifier
46141, 2020-057AA
Orbit
LEO
Country
Flag of USUS
Related business
Manufacturer
SpaceX/Seattle
Mission
Partially operational Commercial Communications
Bus & Motor
STARLINK, Unknown motor
Mass
260 kg wet, ~248 kg dry
Launch date (UTC)
2020-08-18 (6 years ago)
Launch vehicle
FALCON 9
Launch site
Air Force Eastern Test Range (AFETR)
Object type
Payload
Rocket body
Debris
Shape & HBR
Box + 1 Pan, 10.1 m
Radar Cross Section
13.562 m², Large (>1 m²)

Expand to show TLE details & history
Last TLE update: 12 hours ago

TLE from 12 hours ago
0 STARLINK-1596
1 46141U 20057AA  26237.95270366  .00068086  00000-0  50568-3 0  9993
2 46141  53.0289 127.5537 0002403  84.7869 275.3423 15.72240048333677
Epoch: 2026-08-25T22:51Z
TLE epoch observation values (Epoch: 2026-08-25T22:51:53.596Z)
Latitude
0.00004°
Longitude
170.36774°
Altitude
353.248 km
Speed
7.698 km/s
True Right ascension
08h 30m 12s
True Declination
0° 00' 00"
Sunlit
Object was in daylight at epoch
Visualization orbit readout
Latitude
Unknown
Longitude
Unknown
Altitude
Unknown
Speed
Unknown
Apparent Right ascension
Unknown
Apparent Declination
Unknown
Sunlit
N/A
Visualization observer readout
Local Sidereal Time
01:43:49
Azimuth
Unknown
Elevation
Unknown
Doppler factor
Unknown
Orbital elements
Apogee altitude
354.396 km
Perigee altitude
351.162 km
Semi-major axis
6,730.916 km
Eccentricity
0.00024
Inclination
53.0289°
RAAN
127.5537°
Arg. of periapsis
84.7869°
True anomaly
275.31488°
Mean anomaly
275.3423°
Eccentric anomaly
275.32859°
Mean motion
3.93036 °/min
Orbital period
91.59 mins
BSTAR
0.00050568
Loading maneuver chart data...
Computing Atmospheric mass density...

Documentation

Showing up to 5 results
|